User: anonymous
Location: Bonn
(50.7330°N, 7.1000°E)
Time: 12:21:43
(UTC+02:00)
Language:

Iridium 84 - Orbit

View from above orbital plane
View from above orbital plane
View from above satellite
View from above satellite

Ground track
Ground track

The orbit data is extracted from the following two-line orbital elements,

1 25530U 98066D   14265.47837642  .00000354  00000-0  11951-3 0  7982
2 25530 086.3965 047.4765 0002152 112.1521 247.9904 14.34216463833856
Epoch (UTC): 22 September 2014 11:28:51
Eccentricity: 0.0002152
inclination: 86.3965°
perigee height: 776 km
apogee height: 779 km
right ascension of ascending node: 47.4765°
argument of perigee: 112.1521°
revolutions per day: 14.34216463
mean anomaly at epoch: 247.9904°
orbit number at epoch: 83385

The dashed part of the orbit path shows where the satellite is in the earth's shadow,  

DLR